Regional Weather Roundup
Issued by NWS Spokane, WA

Home | Current Version | Previous Version | Text Only | Print | Product List | Glossary On
Versions: 1 2 3 4 5 6 7 8 9 10 11 12 13 14 15 16 17 18 19 20 21 22 23 24 25 26 27 28 29 30 31 32 33 34 35 36 37 38 39 40 41 42 43 44 45 46 47 48 49 50
000
NZUS01 KOTX 030910
RWROTX
EASTERN WASHINGTON/NORTHERN IDAHO ROUNDUP
NATIONAL WEATHER SERVICE, SPOKANE WA
200 AM PDT MON AUG 03 2015

Note: "fair" indicated few or no clouds below 12,000 feet with no
significant weather and/or obstructions to visibility.

...NORTHEAST WASHINGTON AND NORTHERN IDAHO PANHANDLE...

CITY           SKY/WX    TMP DP  RH WIND       PRES   REMARKS
SPOKANE INTL   PTCLDY    73  32  22 S5        29.80F
SPOKANE DOWNTO PTCLDY    70  40  33 NE3       29.80S
COEUR D ALENE  CLEAR     64  43  45 NE5       29.82S
DEER PARK      PTCLDY    59  35  40 NW5       29.81S HAZE
SANDPOINT      CLEAR     54  41  62 CALM      29.81F
BONNERS FERRY  FAIR      63  39  42 CALM      29.84S

...SOUTHEAST WASHINGTON AND SOUTHERN IDAHO PANHANDLE...

CITY           SKY/WX    TMP DP  RH WIND       PRES   REMARKS
WALLA WALLA    PTCLDY    80  41  24 S8        29.78S
PULLMAN/MOSCOW PTCLDY    56  33  42 CALM      29.86S
LEWISTON       PTCLDY    77  29  17 CALM      29.76S
LOWELL           N/A     63  50  62 N3        29.84R

...COLUMBIA BASIN...

CITY           SKY/WX    TMP DP  RH WIND       PRES   REMARKS
EPHRATA        CLOUDY    85  41  21 NW16      29.73F
MOSES LAKE     PTCLDY    78  44  29 W3        29.75S
TRI CITIES     MOCLDY    70  54  56 E3        29.73S
HERMISTON      MOCLDY    75  44  33 SW6       29.75S
PENDLETON      MOCLDY    71  38  29 SE6       29.80F

...EAST SLOPES CASCADES...

CITY           SKY/WX    TMP DP  RH WIND       PRES   REMARKS
THE DALLES     PTCLDY    77  52  41 NW9       29.77F
YAKIMA         PTCLDY    72  46  39 W6        29.79F
ELLENSBURG     MOCLDY    79  41  25 NW21      29.82F
WENATCHEE      PTCLDY    80  47  31 NW7       29.78S
OMAK           CLOUDY    80  35  19 N5        29.76R

...SOUTHERN BRITISH COLUMBIA...

CITY           SKY/WX    TMP DP  RH WIND       PRES   REMARKS
PENTICTON      MOCLDY    70  43  37 N3        29.79F
CRANBROOK      MOCLDY    70  39  32 W7        29.89S

...WESTERN MONTANA...

CITY           SKY/WX    TMP DP  RH WIND       PRES   REMARKS
MISSOULA       MOCLDY    60  36  40 CALM      29.91F

...NEIGHBORING CITIES...

CITY           SKY/WX    TMP DP  RH WIND       PRES   REMARKS
SEATTLE        MOCLDY    70  51  51 N7        29.89S
CALGARY        MOCLDY    64  50  59 S8        29.94F



USA.gov is the U.S. government's official web portal to all federal, state and local government web resources and services.